Weather History for Mackall AAF, NC

Change the Weather History Date:

Sunday, December 9, 2012

  Actual Average Record
Temperature  
Mean Temperature 61 °F -  
Max Temperature 72 °F 56 °F 75 °F (2007)
Min Temperature 50 °F 35 °F 19 °F (2010)
Degree Days  
Heating Degree Days 4    
Growing Degree Days 11 (Base 50)    
Moisture  
Dew Point 57 °F    
Average Humidity 92    
Maximum Humidity 100    
Minimum Humidity 68    
Precipitation  
Precipitation 0.00 in - - ()
Sea Level Pressure  
Sea Level Pressure 30.06 in    
Wind  
Wind Speed 4 mph (SSE)    
Max Wind Speed 13 mph    
Max Gust Speed -    
Visibility 4 miles    
Events Fog    
Averages and records for this station are not official NWS values.
T = Trace of Precipitation, MM = Missing Value Source: NWS Daily Summary

Daily Weather History Graph

Daily Weather History Graph

Search for Another Location

Airport:

Trip Planner

Search our weather history database for the weather conditions in past years. The results will help you decide how hot, cold, wet, or windy it might be!

Date:

Astronomy

Dec. 09, 2012 Rise Set
Actual Time 7:14 AM EST 5:06 PM EST
Civil Twilight 6:46 AM EST 5:34 PM EST
Nautical Twilight 6:15 AM EST 6:05 PM EST
Astronomical Twilight 5:44 AM EST 6:36 PM EST
Moon 2:52 AM EST (12/9) 2:06 PM EST (12/9)
Length of Visible Light 10h 47m
Length of Day
9h 51m
Waning Crescent, 19% of the Moon is Illuminated
Dec 9
Waning Crescent
Dec 13
New
Dec 20
First Quarter
Dec 28
Full
Jan 4
Last Quarter

Hourly Weather History & Observations

Time (EST) Temp. Dew Point Humidity Pressure Visibility Wind Dir Wind Speed Gust Speed Precip Events Conditions
12:55 AM 57.6 °F 53.4 °F 86% 30.09 in 10.0 mi WSW 3.5 mph - N/A   Mostly Cloudy
1:55 AM 57.0 °F 53.6 °F 88% 30.09 in 10.0 mi SSW 8.1 mph - N/A   Mostly Cloudy
2:55 AM 55.9 °F 52.9 °F 89% 30.10 in 10.0 mi WNW 3.5 mph - N/A   Scattered Clouds
7:20 AM 50.0 °F 50.0 °F 100% 30.14 in 2.5 mi SE 1.2 mph - N/A   Partly Cloudy
7:51 AM 51.8 °F 50.0 °F 94% 30.14 in 3.0 mi SE 3.5 mph - N/A   Mostly Cloudy
7:55 AM 51.8 °F 51.3 °F 98% 30.14 in 4.0 mi SE 2.3 mph - N/A   Mostly Cloudy
8:01 AM 51.8 °F 51.8 °F 100% 30.14 in 4.0 mi SSE 1.2 mph - N/A   Mostly Cloudy
8:55 AM 58.8 °F 57.0 °F 94% 30.14 in 9.0 mi South 6.9 mph - N/A   Mostly Cloudy
9:55 AM 62.4 °F 58.3 °F 86% 30.15 in 10.0 mi WSW 4.6 mph - N/A   Mostly Cloudy
10:55 AM 66.7 °F 59.7 °F 78% 30.14 in 10.0 mi Variable 3.5 mph - N/A   Mostly Cloudy
11:55 AM 71.1 °F 60.3 °F 69% 30.10 in 10.0 mi SSE 9.2 mph - N/A   Partly Cloudy
12:55 PM 69.3 °F 60.6 °F 74% 30.09 in 10.0 mi South 6.9 mph - N/A   Partly Cloudy
1:16 PM 71.6 °F 60.8 °F 69% 30.08 in 10.0 mi SSW 9.2 mph - N/A   Mostly Cloudy
1:21 PM 71.6 °F 60.8 °F 69% 30.08 in 10.0 mi South 11.5 mph - N/A   Scattered Clouds
1:26 PM 71.6 °F 60.8 °F 69% 30.08 in 10.0 mi South 8.1 mph - N/A   Mostly Cloudy
1:36 PM 71.6 °F 60.8 °F 69% 30.08 in 10.0 mi SSW 10.4 mph - N/A   Scattered Clouds
1:55 PM 72.0 °F 61.0 °F 68% 30.07 in 10.0 mi South 10.4 mph - N/A   Scattered Clouds
2:31 PM 71.6 °F 60.8 °F 69% 30.06 in 10.0 mi SSW 12.7 mph - N/A   Mostly Cloudy
2:55 PM 70.7 °F 61.2 °F 72% 30.07 in 10.0 mi South 11.5 mph - N/A   Mostly Cloudy
3:36 PM 69.8 °F 60.8 °F 73% 30.07 in 10.0 mi South 10.4 mph - N/A   Mostly Cloudy
3:55 PM 70.5 °F 61.7 °F 74% 30.07 in 10.0 mi South 8.1 mph - N/A   Scattered Clouds
4:55 PM 66.2 °F 60.8 °F 83% 30.06 in 10.0 mi South 5.8 mph - N/A   Clear
5:55 PM 61.3 °F 58.5 °F 90% 30.06 in 10.0 mi South 4.6 mph - N/A   Clear
6:55 PM 60.1 °F 58.6 °F 95% 30.07 in 5.0 mi ESE 1.2 mph - N/A   Clear
7:07 PM 60.8 °F 59.0 °F 94% 30.07 in 2.5 mi Variable 1.2 mph - N/A   Clear
7:09 PM 60.8 °F 59.0 °F 94% 30.07 in 1.5 mi ESE 1.2 mph - N/A   Clear
7:11 PM 60.8 °F 59.0 °F 94% 30.07 in 1.2 mi ESE 1.2 mph - N/A   Clear
7:12 PM 60.8 °F 59.0 °F 94% 30.07 in 1.0 mi East 1.2 mph - N/A Fog Fog
7:13 PM 59.0 °F 59.0 °F 100% 30.07 in 0.8 mi Variable 1.2 mph - N/A Fog Fog
7:36 PM 59.0 °F 57.2 °F 94% 30.07 in 1.0 mi SE 1.2 mph - N/A Fog Patches of Fog
7:37 PM 59.0 °F 57.2 °F 94% 30.07 in 1.2 mi SE 1.2 mph - N/A Fog Patches of Fog
7:40 PM 59.0 °F 57.2 °F 94% 30.07 in 1.0 mi SE 1.2 mph - N/A   Scattered Clouds
7:52 PM 57.2 °F 55.4 °F 94% 30.07 in 0.8 mi SSE 1.2 mph - N/A Fog Fog
8:00 PM 57.2 °F 55.4 °F 94% 30.07 in 1.0 mi SSE 2.3 mph - N/A   Mostly Cloudy
8:02 PM 57.2 °F 55.4 °F 94% 30.06 in 1.2 mi South 2.3 mph - N/A   Mostly Cloudy
8:03 PM 57.2 °F 55.4 °F 94% 30.06 in 2.0 mi SSE 2.3 mph - N/A   Mostly Cloudy
8:04 PM 57.2 °F 57.2 °F 100% 30.07 in 4.0 mi SSE 2.3 mph - N/A   Mostly Cloudy
8:06 PM 57.2 °F 55.4 °F 94% 30.07 in 2.0 mi SSE 2.3 mph - N/A   Mostly Cloudy
8:07 PM 57.2 °F 55.4 °F 94% 30.07 in 1.0 mi SSE 2.3 mph - N/A   Mostly Cloudy
8:08 PM 57.2 °F 55.4 °F 94% 30.07 in 0.8 mi SSE 2.3 mph - N/A Fog Patches of Fog
8:26 PM 57.2 °F 57.2 °F 100% 30.06 in 0.5 mi South 2.3 mph - N/A Fog Patches of Fog
8:31 PM 57.2 °F 57.2 °F 100% 30.06 in 0.5 mi SSW 1.2 mph - N/A Fog Fog
8:35 PM 59.0 °F 57.2 °F 94% 30.06 in 0.5 mi SSW 1.2 mph - N/A Fog Fog
8:52 PM 57.2 °F 57.2 °F 100% 30.06 in 1.0 mi ESE 2.3 mph - N/A Fog Patches of Fog
8:54 PM 57.2 °F 57.2 °F 100% 30.05 in 1.2 mi ESE 2.3 mph - N/A Fog Patches of Fog
8:55 PM 57.4 °F 56.5 °F 97% 30.05 in 1.2 mi ESE 2.3 mph - N/A Fog Patches of Fog
8:56 PM 57.2 °F 57.2 °F 100% 30.05 in 1.0 mi SE 2.3 mph - N/A Fog Patches of Fog
9:00 PM 57.2 °F 57.2 °F 100% 30.05 in 0.8 mi SE 1.2 mph - N/A Fog Patches of Fog
9:17 PM 57.2 °F 55.4 °F 94% 30.04 in 1.0 mi East 2.3 mph - N/A Fog Patches of Fog
9:18 PM 57.2 °F 55.4 °F 94% 30.04 in 1.2 mi East 2.3 mph - N/A Fog Patches of Fog
9:19 PM 57.2 °F 55.4 °F 94% 30.04 in 1.5 mi East 2.3 mph - N/A Fog Patches of Fog
9:20 PM 57.2 °F 55.4 °F 94% 30.04 in 2.0 mi East 2.3 mph - N/A Fog Patches of Fog
9:21 PM 57.2 °F 55.4 °F 94% 30.04 in 4.0 mi East 2.3 mph - N/A Fog Patches of Fog
9:54 PM 57.2 °F 57.2 °F 100% 30.04 in 2.5 mi SE 2.3 mph - N/A   Partly Cloudy
9:55 PM 57.2 °F 57.0 °F 99% 30.04 in 3.0 mi SE 2.3 mph - N/A   Scattered Clouds
10:01 PM 57.2 °F 57.2 °F 100% 30.04 in 2.5 mi ESE 3.5 mph - N/A   Mostly Cloudy
10:02 PM 57.2 °F 57.2 °F 100% 30.04 in 3.0 mi ESE 3.5 mph - N/A   Mostly Cloudy
10:03 PM 57.2 °F 57.2 °F 100% 30.04 in 2.5 mi SE 3.5 mph - N/A   Mostly Cloudy
10:05 PM 57.2 °F 55.4 °F 94% 30.04 in 3.0 mi SE 3.5 mph - N/A   Scattered Clouds
10:08 PM 57.2 °F 55.4 °F 94% 30.04 in 2.5 mi SE 2.3 mph - N/A Fog Patches of Fog
10:10 PM 57.2 °F 55.4 °F 94% 30.04 in 1.8 mi SE 3.5 mph - N/A Fog Patches of Fog
10:13 PM 57.2 °F 55.4 °F 94% 30.04 in 1.5 mi SE 3.5 mph - N/A Fog Patches of Fog
10:18 PM 57.2 °F 55.4 °F 94% 30.04 in 2.0 mi SE 3.5 mph - N/A Fog Patches of Fog
10:20 PM 57.2 °F 55.4 °F 94% 30.04 in 2.5 mi SE 3.5 mph - N/A   Partly Cloudy
10:21 PM 57.2 °F 55.4 °F 94% 30.04 in 3.0 mi SE 3.5 mph - N/A   Partly Cloudy
10:31 PM 57.2 °F 57.2 °F 100% 30.04 in 2.0 mi SE 3.5 mph - N/A   Partly Cloudy
10:32 PM 57.2 °F 57.2 °F 100% 30.04 in 1.8 mi SE 3.5 mph - N/A   Partly Cloudy
10:33 PM 57.2 °F 55.4 °F 94% 30.04 in 1.5 mi SE 3.5 mph - N/A   Partly Cloudy
10:41 PM 59.0 °F 57.2 °F 94% 30.03 in 1.8 mi ESE 3.5 mph - N/A   Partly Cloudy
10:42 PM 59.0 °F 57.2 °F 94% 30.03 in 2.5 mi SE 3.5 mph - N/A   Partly Cloudy
10:43 PM 59.0 °F 57.2 °F 94% 30.03 in 4.0 mi SE 3.5 mph - N/A   Partly Cloudy
10:50 PM 57.2 °F 57.2 °F 100% 30.03 in 2.5 mi ESE 3.5 mph - N/A   Partly Cloudy
10:55 PM 58.8 °F 58.5 °F 99% 30.03 in 2.5 mi SE 2.3 mph - N/A   Partly Cloudy
11:00 PM 59.0 °F 59.0 °F 100% 30.02 in 1.8 mi SSE 2.3 mph - N/A   Partly Cloudy
11:01 PM 59.0 °F 59.0 °F 100% 30.02 in 1.2 mi SSE 2.3 mph - N/A   Partly Cloudy
11:02 PM 59.0 °F 57.2 °F 94% 30.02 in 1.0 mi SSE 2.3 mph - N/A   Partly Cloudy
11:03 PM 59.0 °F 55.4 °F 88% 30.02 in 0.8 mi SSE 2.3 mph - N/A Fog Fog
11:28 PM 59.0 °F 59.0 °F 100% 30.01 in 1.0 mi SE 2.3 mph - N/A Fog Fog
11:30 PM 59.0 °F 57.2 °F 94% 30.01 in 1.2 mi ESE 1.2 mph - N/A   Partly Cloudy
11:31 PM 59.0 °F 57.2 °F 94% 30.01 in 1.5 mi Variable 1.2 mph - N/A   Partly Cloudy
11:38 PM 59.0 °F 59.0 °F 100% 30.01 in 1.8 mi SSE 2.3 mph - N/A Fog Patches of Fog
11:39 PM 59.0 °F 59.0 °F 100% 30.01 in 2.0 mi SSE 2.3 mph - N/A Fog Patches of Fog
11:43 PM 59.0 °F 59.0 °F 100% 30.01 in 2.5 mi SSE 3.5 mph - N/A Fog Patches of Fog
11:44 PM 59.0 °F 59.0 °F 100% 30.01 in 3.0 mi SSE 3.5 mph - N/A Fog Patches of Fog
11:51 PM 59.0 °F 59.0 °F 100% 30.00 in 3.0 mi SSE 2.3 mph - N/A Fog Patches of Fog
11:55 PM 59.5 °F 59.2 °F 99% 30.00 in 5.0 mi SSE 3.5 mph - N/A   Mostly Cloudy